Location: Makanda
(37.6176°N, 89.2090°W)
Time: 17:10:56
(UTC+00:00)

Cosmos 1954 Rocket - Pass Details

Date: 23 September 2019
Orbit: 753 x 781 km, 74.0° (Epoch: 15 October)

Event Time Altitude Azimuth Distance (km) Brightness Sun altitude
Rises 02:09:13 0° 337° (NNW) 3,229 7.9 -26.9°
Reaches altitude 10° 02:11:38 10° 334° (NNW) 2,296 7.1 -27.4°
Maximum altitude 02:16:43 59° 256° (WSW) 875 4.4 -28.3°
Enters shadow 02:17:12 56° 231° (SW) 897 4.3 -28.4°
